Flag for Canada Weather past 2 weeks in Pond Inlet, Nunavut Territory, Canada

Now
25 °F

Overcast.


Feels Like: 20 °F
Forecast: 23 / 35 °F
Wind: 3 mph from Southeast

Location: Pond Inlet

Current Time: Sep 17, 2014 at 8:21:48 AM

Latest Report: Sep 17, 2014 at 7:00 AM


Visibility: 9 mi

Pressure: 29.93 "Hg

Humidity: 80%

Dew point: 19 °F

Location of Pond InletLocation

Historic Weather in Pond Inlet — Graph

°F

Pond Inlet temperature yesterday

Maximum temperature yesterday: 37 °F (at 10:00 AM)
Minimum temperature yesterday: 25 °F (at 11:00 PM)
Average temperature yesterday: 31 °F

Past Weeks' High & Low Weather Summary

 TemperatureHumidityPressure
High43 °F (Sep 2, 2:00 PM)100% (Sep 6, 1:00 PM)29.93 "Hg (Sep 6, 1:00 PM)
Low19 °F (Sep 17, 1:00 AM)60% (Sep 13, 1:00 PM)29.21 "Hg (Sep 13, 3:00 PM)
Average33 °F83%29.63 "Hg
* Reported Sep 2 7:00 AM — Sep 17 7:00 AM, Pond Inlet, Weather by CustomWeather, © 2014

Note: Actual official high and low records may vary slightly from our data, if they occured in-between our weather recording intervals... More about our weather records

Advertising

Pond Inlet weather history for previous 24 hours

 ConditionsComfort  
Time TempWeatherWind HumidityBarometerVisibility
7:00 AM
Sep 17
25 °FOvercast.3 mph80%29.93 "Hg9 mi
6:00 AM25 °FOvercast.No wind74%29.93 "Hg9 mi
5:00 AM21 °FOvercast.5 mph80%29.92 "Hg9 mi
4:00 AM23 °FOvercast.5 mph74%29.91 "Hg9 mi
3:00 AM21 °FPassing clouds.3 mph68%29.90 "Hg9 mi
2:00 AM19 °FPassing clouds.6 mph79%29.90 "Hg9 mi
1:00 AM19 °FClear.9 mph79%29.88 "Hg9 mi
12:00 AM21 °FPassing clouds.9 mph74%29.87 "Hg9 mi
11:00 PM
Sep 16
25 °FOvercast.8 mph74%29.85 "Hg9 mi
10:00 PM27 °FOvercast.8 mph74%29.84 "Hg9 mi
9:54 PM27 °FOvercast.9 mph74%29.84 "Hg9 mi
9:00 PM28 °FOvercast.9 mph74%29.83 "Hg9 mi
8:00 PM28 °FOvercast.6 mph69%29.81 "Hg9 mi
7:00 PM30 °FPassing clouds.2 mph64%29.79 "Hg20 mi
6:00 PM30 °FPartly sunny.8 mph64%29.77 "Hg20 mi
5:00 PM32 °FPartly sunny.12 mph69%29.74 "Hg20 mi
4:00 PM34 °FPartly sunny.12 mph60%29.72 "Hg20 mi
3:00 PM34 °FPartly sunny.8 mph65%29.70 "Hg20 mi
2:00 PM32 °FPartly sunny.6 mph75%29.68 "Hg20 mi
1:00 PM32 °FPartly sunny.5 mph80%29.66 "Hg20 mi
12:00 PM32 °FPartly sunny.9 mph80%29.65 "Hg20 mi
11:00 AM36 °FPartly sunny.7 mph60%29.63 "Hg9 mi
10:00 AM37 °FOvercast.14 mph60%29.61 "Hg9 mi
9:00 AM36 °FOvercast.16 mph70%29.61 "Hg9 mi
8:00 AM32 °FCloudy.7 mph93%29.63 "Hg9 mi
Weather by CustomWeather, © 2014

See weather overviewHow to use our weather pages